Weather History for YSSY - August, 2013

Change the Weather History Date:

Tuesday, August 27, 2013

  Actual Average Record
Temperature  
Mean Temperature 60 °F -  
Max Temperature 66 °F 69 °F 80 °F (2007)
Min Temperature 53 °F 50 °F 46 °F (1997)
Degree Days  
Heating Degree Days 6    
Growing Degree Days 10 (Base 50)    
Moisture  
Dew Point 49 °F    
Average Humidity 65    
Maximum Humidity 94    
Minimum Humidity 34    
Precipitation  
Precipitation 0.00 in 0.08 in - ()
Sea Level Pressure  
Sea Level Pressure 30.13 in    
Wind  
Wind Speed 9 mph ()    
Max Wind Speed 14 mph    
Max Gust Speed -    
Visibility 8.5 miles    
Events      
Averages and records for this station are not official NWS values.
T = Trace of Precipitation, MM = Missing Value Source: Averaged Metar Reports

Daily Weather History Graph

Daily Weather History Graph

Search for Another Location

Airport or City:

Trip Planner

Search our weather history database for the weather conditions in past years. The results will help you decide how hot, cold, wet, or windy it might be!

Date:

Astronomy

Aug. 27, 2013 Rise Set
Actual Time 6:20 AM AEST 5:33 PM AEST
Civil Twilight 5:55 AM AEST 5:59 PM AEST
Nautical Twilight 5:26 AM AEST 6:28 PM AEST
Astronomical Twilight 4:57 AM AEST 6:57 PM AEST
Moon 11:55 PM AEST (8/27) 9:50 AM AEST (8/27)
Length of Visible Light 12h 03m
Length of Day
11h 13m
Waning Gibbous, 63% of the Moon is Illuminated
Aug 27
Waning Gibbous
Aug 28
Last Quarter
Sep 5
New
Sep 13
First Quarter
Sep 19
Full

Hourly Weather History & Observations

Time (AEST) Temp. Dew Point Humidity Pressure Visibility Wind Dir Wind Speed Gust Speed Precip Events Conditions
12:00 AM 57 °F 41 °F 45% 30.19 in 16 mi WSW 11.5 mph - -   Smoke
12:00 AM 57.2 °F 41.0 °F 55% 30.18 in - WSW 11.5 mph - N/A   Clear
12:30 AM 57.2 °F 41.0 °F 55% 30.18 in - WSW 13.8 mph - N/A   Clear
1:00 AM 57 °F 41 °F 43% 30.18 in - WSW 11.5 mph - -  
1:00 AM 57.2 °F 41.0 °F 55% 30.18 in - WSW 11.5 mph - N/A   Clear
1:30 AM 57.2 °F 41.0 °F 55% 30.15 in - West 9.2 mph - N/A   Clear
2:00 AM 56 °F 41 °F 45% 30.16 in - North 6.9 mph - -  
2:00 AM 57.2 °F 41.0 °F 55% 30.15 in - North 6.9 mph - N/A   Clear
2:30 AM 57.2 °F 41.0 °F 55% 30.15 in - NW 5.8 mph - N/A   Clear
3:00 AM 55 °F 41 °F 49% 30.15 in 16 mi NW 9.2 mph - -   Smoke
3:00 AM 55.4 °F 41.0 °F 58% 30.12 in - NW 9.2 mph - N/A   Clear
3:30 AM 55.4 °F 41.0 °F 58% 30.12 in - NW 8.1 mph - N/A   Clear
4:00 AM 54 °F 42 °F 53% 30.16 in - WNW 8.1 mph - -  
4:00 AM 55.4 °F 41.0 °F 58% 30.15 in - WNW 8.1 mph - N/A   Clear
4:30 AM 53.6 °F 41.0 °F 62% 30.15 in - WNW 9.2 mph - N/A   Clear
5:00 AM 54 °F 41 °F 51% 30.17 in - WNW 11.5 mph - -  
5:00 AM 53.6 °F 41.0 °F 62% 30.15 in - WNW 11.5 mph - N/A   Clear
5:30 AM 53.6 °F 41.0 °F 62% 30.15 in - WNW 10.4 mph - N/A   Clear
6:00 AM 53.6 °F 41.0 °F 62% 30.15 in - West 9.2 mph - N/A   Clear
6:30 AM 55.4 °F 41.0 °F 58% 30.15 in - WNW 9.2 mph - N/A   Clear
7:00 AM 54 °F 41 °F 51% 30.17 in - NW 8.1 mph - -  
7:00 AM 53.6 °F 41.0 °F 62% 30.15 in - NW 8.1 mph - N/A   Clear
7:30 AM 55.4 °F 41.0 °F 58% 30.15 in - NW 8.1 mph - N/A   Clear
8:00 AM 58 °F 41 °F 41% 30.19 in - WNW 13.8 mph - -  
8:00 AM 59.0 °F 41.0 °F 51% 30.18 in - WNW 13.8 mph - N/A   Clear
8:30 AM 60.8 °F 41.0 °F 48% 30.15 in - West 11.5 mph - N/A   Clear
9:00 AM 62 °F 42 °F 36% 30.18 in 16 mi WNW 9.2 mph - -   Smoke
9:00 AM 62.6 °F 41.0 °F 45% 30.15 in 6.2 mi WNW 9.2 mph - N/A   Partly Cloudy
9:30 AM 64.4 °F 42.8 °F 45% 30.15 in - WNW 6.9 mph - N/A   Clear
10:00 AM 66 °F 44 °F 34% 30.16 in - WNW 5.8 mph - -  
10:00 AM 66.2 °F 44.6 °F 46% 30.15 in 6.2 mi WNW 5.8 mph - N/A   Partly Cloudy
10:30 AM 64.4 °F 46.4 °F 52% 30.15 in 6.2 mi South 4.6 mph - N/A   Partly Cloudy
11:00 AM 65 °F 49 °F 45% 30.15 in - West 6.9 mph - -  
11:00 AM 64.4 °F 48.2 °F 56% 30.12 in 6.2 mi West 6.9 mph - N/A   Partly Cloudy
11:30 AM 66.2 °F 50.0 °F 56% 30.12 in 6.2 mi South 6.9 mph - N/A   Partly Cloudy
12:00 PM 65 °F 52 °F 54% 30.13 in 19 mi SSE 9.2 mph - -   Smoke
12:00 PM 64.4 °F 51.8 °F 64% 30.12 in 6.2 mi SSE 9.2 mph - N/A   Partly Cloudy
12:30 PM 64.4 °F 55.4 °F 73% 30.12 in 6.2 mi South 11.5 mph - N/A   Partly Cloudy
1:00 PM 65 °F 54 °F 60% 30.11 in - South 12.7 mph - -  
1:00 PM 64.4 °F 55.4 °F 73% 30.09 in 6.2 mi South 12.7 mph - N/A   Partly Cloudy
1:30 PM 64.4 °F 55.4 °F 73% 30.09 in 6.2 mi South 12.7 mph - N/A   Partly Cloudy
2:00 PM 64 °F 56 °F 67% 30.09 in - South 12.7 mph - -  
2:00 PM 64.4 °F 55.4 °F 73% 30.09 in 6.2 mi South 12.7 mph - N/A   Partly Cloudy
2:30 PM 64.4 °F 57.2 °F 77% 30.06 in 6.2 mi South 11.5 mph - N/A   Partly Cloudy
3:00 PM 65 °F 57 °F 68% 30.08 in 19 mi SSE 10.4 mph - -   Haze
3:00 PM 64.4 °F 57.2 °F 77% 30.06 in 6.2 mi SSE 10.4 mph - N/A   Partly Cloudy
3:30 PM 66.2 °F 55.4 °F 68% 30.06 in 6.2 mi SE 10.4 mph - N/A   Scattered Clouds
4:00 PM 64.4 °F 55.4 °F 73% 30.06 in 6.2 mi SE 10.4 mph - N/A   Mostly Cloudy
4:30 PM 64.4 °F 57.2 °F 77% 30.06 in 6.2 mi SE 10.4 mph - N/A   Scattered Clouds
5:00 PM 64 °F 57 °F 70% 30.08 in - SE 10.4 mph - -  
5:00 PM 64.4 °F 57.2 °F 77% 30.06 in 6.2 mi SE 10.4 mph - N/A   Scattered Clouds
5:30 PM 62.6 °F 57.2 °F 82% 30.06 in 6.2 mi SE 10.4 mph - N/A   Scattered Clouds
6:00 PM 62 °F 57 °F 77% 30.09 in 16 mi SE 9.2 mph - -   Haze
6:00 PM 62.6 °F 57.2 °F 82% 30.06 in 6.2 mi SE 9.2 mph - N/A   Scattered Clouds
6:30 PM 62.6 °F 57.2 °F 82% 30.09 in 6.2 mi SE 9.2 mph - N/A   Scattered Clouds
7:00 PM 62 °F 56 °F 76% 30.11 in - SE 9.2 mph - -  
7:00 PM 62.6 °F 57.2 °F 82% 30.09 in - SE 9.2 mph - N/A   Clear
7:30 PM 62.6 °F 57.2 °F 82% 30.09 in - SE 8.1 mph - N/A   Clear
8:00 PM 62 °F 56 °F 74% 30.12 in - ESE 5.8 mph - -  
8:00 PM 60.8 °F 55.4 °F 82% 30.12 in 6.2 mi ESE 5.8 mph - N/A   Scattered Clouds
8:30 PM 60.8 °F 55.4 °F 82% 30.12 in 6.2 mi SE 4.6 mph - N/A   Mostly Cloudy
9:00 PM 61 °F 56 °F 80% 30.12 in 16 mi SSE 5.8 mph - -   Haze
9:00 PM 60.8 °F 57.2 °F 88% 30.12 in - SSE 5.8 mph - N/A   Clear
9:30 PM 59.0 °F 57.2 °F 94% 30.12 in 6.2 mi South 5.8 mph - N/A   Scattered Clouds
10:00 PM 60 °F 56 °F 81% 30.13 in - West 8.1 mph - -  
10:00 PM 60.8 °F 55.4 °F 82% 30.12 in 6.2 mi West 8.1 mph - N/A   Scattered Clouds
10:30 PM 59.0 °F 55.4 °F 88% 30.12 in 6.2 mi WNW 8.1 mph - N/A   Scattered Clouds
11:00 PM 58 °F 55 °F 86% 30.13 in - West 9.2 mph - -  
11:00 PM 59.0 °F 55.4 °F 88% 30.12 in 6.2 mi West 9.2 mph - N/A   Scattered Clouds
11:30 PM 59.0 °F 55.4 °F 88% 30.12 in 6.2 mi West 8.1 mph - N/A   Scattered Clouds